Theta_e
315 315 312 307 308 303 300 298 299 296 295 293 291 291 291 290 291 291 290 290 290 289 289 288 287 287 286 285 284 283 282 281 277 280 280 282 282 282 283 284 284 283 284
298 297 295 294 294 292 291 291 292 291 291 291 291 290 290 291 291 290 289 290 289 287 287 286 285 286 284 284 283 282 282 282 280 278 280 281 280 282 281 280 281 282 282
295 294 292 292 292 291 291 292 292 292 292 292 291 290 290 290 289 289 287 286 285 285 285 285 284 284 283 283 283 281 281 282 281 279 279 281 280 280 280 280 280 280 281
291 290 289 290 290 289 289 290 290 290 289 288 288 287 286 286 285 285 285 284 284 284 284 284 284 283 283 282 283 282 283 282 281 280 279 279 280 281 280 278 278 280 279
289 289 288 288 289 288 288 287 286 286 285 285 285 285 285 285 285 285 285 284 284 284 284 284 284 284 285 285 284 283 283 282 281 280 280 280 280 280 279 280 278 279 280
288 287 287 287 286 286 285 285 285 284 284 284 284 284 284 284 287 287 285 284 283 283 282 282 283 283 283 284 285 286 285 282 281 280 280 279 280 281 281 281 280 279 277
285 285 285 284 284 284 284 284 283 282 283 282 282 281 281 282 285 285 284 282 282 281 281 281 281 281 280 279 281 282 282 283 284 282 280 280 279 280 281 279 279 279 278
281 281 282 282 282 282 282 282 281 281 280 279 278 278 279 280 282 282 281 279 279 279 279 278 277 276 278 278 278 278 278 279 279 279 278 278 279 281 281 281 280 280 280
277 278 278 280 280 280 279 280 280 277 276 275 276 276 276 278 281 280 278 277 276 276 277 275 275 275 278 279 275 273 274 274 276 276 276 277 277 277 277 275 273 272 272
276 276 277 277 276 275 275 275 276 276 275 275 274 274 275 275 279 279 277 276 273 273 274 273 274 275 276 276 273 271 270 271 269 269 269 270 271 272 274 272 270 266 265
275 275 275 275 274 274 274 274 273 273 272 272 272 273 273 274 275 278 278 274 273 272 271 270 271 275 274 274 273 270 270 270 267 265 265 265 266 267 268 267 266 265 263
272 272 273 273 274 273 272 272 272 271 270 269 269 270 272 272 275 276 277 275 275 270 269 268 269 272 272 271 269 271 271 267 263 262 261 261 262 262 263 264 265 265 266
269 268 269 270 272 273 271 271 270 270 268 268 268 267 269 270 271 274 274 273 272 270 269 268 269 269 269 267 267 268 264 262 260 259 259 260 261 261 262 262 263 263 264
267 267 268 267 268 270 271 271 270 269 268 267 266 266 267 269 270 271 271 269 270 269 266 262 266 266 265 265 261 262 261 261 260 259 259 260 260 260 259 261 259 261 261
266 266 266 266 265 265 266 269 269 270 271 267 266 266 265 267 270 272 272 268 267 268 261 257 257 257 258 258 258 258 259 259 258 258 258 257 258 258 258 259 259 260 259
264 264 263 263 263 263 262 262 269 271 271 272 272 270 269 272 273 272 272 270 269 268 253 251 254 256 256 256 256 256 257 257 257 257 257 257 257 257 257 258 259 259 260
261 261 261 261 261 260 260 259 258 261 267 268 269 270 270 271 272 271 270 268 265 261 248 251 254 254 255 255 255 255 255 256 256 256 256 257 257 257 257 257 258 259 258
258 259 258 258 257 257 257 256 253 253 255 257 262 266 267 269 270 269 268 262 255 256 254 253 253 254 254 254 254 254 255 255 255 255 256 257 257 257 256 257 258 258 258
257 255 252 251 252 253 252 252 251 250 251 252 253 259 259 267 267 265 264 250 251 253 253 253 253 253 254 254 254 254 254 254 255 255 256 257 257 257 256 257 257 257 257
252 258 254 250 250 250 251 250 250 251 250 253 255 256 257 262 257 256 255 254 253 253 253 253 253 253 253 254 254 254 253 254 254 255 256 257 257 257 257 256 256 255 255
249 249 252 249 248 247 247 250 251 253 253 254 255 255 266 258 254 253 253 253 252 252 252 252 253 253 253 254 254 253 253 254 254 255 256 257 257 256 257 256 255 255 255
247 247 247 246 248 252 252 250 249 250 252 253 254 255 263 254 254 253 253 253 252 252 252 252 253 253 254 254 253 253 253 253 254 255 256 257 257 256 256 255 254 253 252
249 251 251 249 246 249 251 249 249 251 252 253 253 253 254 253 253 253 253 253 253 252 252 252 252 253 254 254 254 254 254 254 255 256 258 256 255 255 254 253 252 251 251
246 245 246 247 249 250 249 251 252 251 251 251 252 253 253 253 253 252 252 253 253 252 252 252 252 252 253 253 254 255 255 256 257 259 257 255 254 253 252 251 251 250 250
244 245 246 247 248 249 250 251 252 251 252 253 253 253 254 254 254 253 253 254 254 252 252 252 252 252 252 253 253 254 255 257 261 259 256 253 252 251 249 248 249 250 246
245 245 245 247 249 248 248 249 250 252 252 253 253 253 253 254 253 253 253 253 253 252 251 251 252 251 252 253 254 256 258 261 261 258 254 251 250 250 249 249 248 248 248
Wind_Speed
9 9 9 10 10 12 12 12 12 12 9 9 9 9 10 10 10 9 8 7 8 6 7 6 6 5 3 1 3 3 3 3 4 5 3 2 4 7 7 6 8 9 10
14 15 14 14 14 15 15 14 14 15 15 13 12 13 13 14 11 10 9 8 8 7 7 5 7 3 5 3 3 5 4 3 3 12 7 6 7 8 10 10 10 9 11
16 16 15 15 14 14 12 12 13 14 15 14 13 13 13 12 12 10 10 9 7 7 6 5 4 6 4 4 5 5 5 5 5 8 12 8 7 5 10 10 10 12 11
18 17 17 16 16 15 15 15 15 13 16 15 13 13 13 11 10 7 7 7 7 6 4 5 4 4 5 5 4 4 5 7 9 9 11 10 8 8 6 10 13 10 11
18 19 17 15 16 16 16 16 16 14 14 14 13 14 12 11 7 6 6 5 5 5 5 4 4 7 12 11 7 7 8 7 7 9 11 11 10 10 11 10 13 13 13
20 17 17 16 16 15 14 15 15 14 14 15 14 15 15 11 19 19 12 9 10 10 9 8 7 8 11 16 17 17 14 9 11 9 10 12 14 13 12 12 13 14 19
18 17 16 16 16 15 15 17 16 15 16 16 17 16 18 15 25 23 19 9 9 9 10 10 9 9 12 13 17 18 14 17 18 14 14 13 16 14 16 17 16 16 18
19 18 16 15 16 15 16 16 15 14 16 15 15 16 15 17 25 21 18 11 10 11 11 12 11 11 13 15 13 12 12 11 12 12 15 17 17 19 17 17 20 20 18
19 18 17 16 16 16 17 16 15 15 14 14 14 14 16 16 26 23 14 9 10 11 10 11 13 14 24 26 15 14 13 12 15 24 25 27 29 29 25 15 14 16 17
17 17 16 16 16 17 15 15 14 13 13 11 14 14 16 14 26 27 19 10 11 9 10 13 18 20 24 25 14 14 13 15 17 16 15 17 18 17 24 14 13 14 15
15 16 16 16 16 15 14 13 12 13 13 12 12 12 13 14 16 25 25 12 9 8 9 10 10 24 23 22 21 12 15 19 16 13 12 11 12 12 11 12 15 13 15
14 15 15 15 12 11 14 12 12 11 11 10 9 8 9 11 20 22 24 23 19 9 10 8 10 22 23 22 16 24 24 18 9 10 10 11 12 12 13 14 16 15 14
14 14 13 12 12 12 12 11 9 10 9 9 8 8 8 8 8 20 21 22 19 11 9 16 21 21 21 14 22 24 17 10 10 11 12 12 13 14 17 16 16 18 18
13 13 11 12 12 11 9 9 9 8 8 8 8 7 7 8 9 10 9 9 13 10 11 9 15 16 16 15 10 11 9 9 10 10 11 12 12 12 13 12 14 14 14
12 10 10 9 9 8 9 8 7 10 10 5 5 6 8 8 11 19 17 10 9 12 9 5 6 6 7 7 7 7 7 8 8 9 10 11 12 12 12 11 12 13 14
10 8 7 7 7 7 7 7 17 15 18 18 16 13 7 16 21 21 22 21 18 18 4 4 4 6 7 8 9 9 8 10 9 10 11 11 13 13 14 13 12 12 13
9 8 7 8 7 7 7 6 7 8 12 16 17 15 19 17 19 18 20 19 16 12 1 4 6 7 8 9 9 10 11 11 12 10 12 12 13 13 16 14 13 12 14
7 9 6 5 5 4 4 4 3 3 7 8 11 14 19 20 21 21 22 15 9 9 6 8 9 9 9 10 10 10 11 11 11 12 12 12 13 13 14 14 14 15 14
5 4 3 3 3 3 3 3 2 3 4 5 5 7 7 19 19 19 19 3 5 8 8 8 8 8 9 9 10 10 11 11 12 12 12 12 13 13 14 13 13 17 16
4 8 4 3 3 3 3 3 3 3 3 4 7 8 11 13 12 11 8 7 7 7 7 7 8 7 8 9 10 10 11 12 12 12 12 12 12 11 12 13 12 11 10
3 3 4 2 1 2 2 2 4 5 6 7 7 6 23 9 8 8 8 7 7 8 9 9 9 9 9 9 10 10 11 12 11 12 12 12 11 11 11 10 10 10 10
3 3 1 2 2 5 6 4 4 5 6 7 10 9 23 7 7 8 9 8 7 7 7 8 8 8 9 9 10 10 12 13 12 12 12 11 10 10 9 9 10 10 10
2 5 5 4 3 5 5 4 5 6 7 8 8 9 9 8 8 9 10 9 8 8 8 8 8 9 9 9 10 10 11 12 12 12 11 9 8 8 8 8 9 9 9
4 3 3 4 4 5 4 6 6 6 6 7 8 8 9 9 9 9 9 9 8 7 7 8 9 12 11 11 10 11 11 11 12 10 8 6 7 8 7 7 8 10 9
2 3 4 4 5 5 7 7 7 7 7 7 8 8 9 9 9 9 9 9 9 8 10 10 9 11 14 18 18 18 18 19 13 6 4 4 5 8 6 5 7 9 7
3 3 3 4 5 4 4 6 6 7 8 8 8 8 8 9 9 9 9 9 9 11 11 9 11 14 17 14 16 18 21 24 2 5 3 3 4 5 5 7 9 7 9
Wind_Direction
35 30 40 35 44 45 40 31 25 29 40 55 75 68 60 63 53 55 55 59 60 60 59 58 56 47 39 12 2 350 263 214 248 278 253 277 281 278 275 248 249 246 249
64 60 56 55 57 65 66 60 66 64 54 55 60 67 72 62 54 55 51 45 49 44 46 37 21 3 35 281 260 283 270 249 258 284 287 286 262 268 266 263 263 247 247
68 67 58 58 58 61 63 73 74 86 80 78 70 73 62 69 69 55 58 56 47 41 38 30 8 5 349 342 327 304 311 302 281 281 290 289 285 281 286 274 266 267 263
72 69 64 62 64 62 57 57 57 60 74 73 59 59 62 59 66 64 66 73 71 57 45 38 10 333 325 313 302 292 299 295 298 289 291 293 286 284 275 288 286 277 275
69 72 68 68 67 67 67 68 66 61 64 67 71 63 59 53 44 45 58 60 54 46 44 24 18 358 348 345 333 328 317 307 299 292 294 298 299 298 289 290 285 289 281
65 64 63 59 59 58 58 59 62 60 63 66 63 62 58 52 50 49 49 45 40 35 28 21 12 15 359 360 349 340 331 321 310 304 301 298 301 305 303 297 293 293 293
58 54 56 59 58 56 58 61 58 61 63 60 55 54 52 44 42 46 45 43 44 37 33 23 16 14 4 354 346 340 329 326 324 318 308 305 302 305 299 291 284 281 281
52 51 50 54 61 60 62 63 62 58 56 56 54 54 53 45 44 43 43 41 38 31 33 25 18 1 354 354 351 344 345 343 345 342 333 324 317 316 311 307 303 296 287
50 49 46 48 54 54 54 56 59 61 59 57 53 48 48 44 40 43 38 40 36 29 28 22 12 2 0 0 359 351 348 342 343 335 329 327 328 329 324 322 322 325 315
47 51 51 49 53 54 52 52 54 59 62 58 56 42 39 38 34 35 33 26 23 16 16 11 7 3 2 0 4 351 341 340 342 334 329 329 329 324 327 325 332 319 312
53 53 51 53 53 52 55 52 51 54 52 47 47 42 37 27 27 29 31 23 20 9 12 357 354 355 357 356 0 342 342 344 330 329 325 324 325 325 325 326 315 309 305
54 54 52 53 54 51 54 52 50 50 48 45 39 38 35 27 22 22 23 23 13 11 7 348 339 350 351 353 353 346 349 340 327 328 324 325 325 324 319 312 306 301 292
60 54 49 48 51 53 51 50 50 47 45 37 32 22 16 18 13 13 13 14 8 8 3 352 344 349 347 344 344 346 347 335 333 331 325 322 321 315 313 314 311 307 299
62 56 49 48 45 39 52 46 44 41 39 37 30 18 359 11 6 4 7 9 354 354 10 346 340 340 339 339 334 337 330 327 326 319 316 312 310 312 312 313 311 309 304
60 54 49 49 42 37 35 41 48 36 38 43 39 18 358 2 5 1 359 355 345 349 4 329 322 324 324 328 330 326 321 321 320 318 313 312 310 313 312 315 308 309 308
64 50 41 43 39 40 31 24 29 32 34 28 30 26 9 356 0 357 355 354 345 356 358 307 306 326 332 335 334 330 328 329 329 324 319 318 318 320 318 318 312 309 309
63 48 44 42 39 36 32 31 13 348 11 18 11 12 4 352 356 356 355 356 345 5 328 330 337 337 335 333 332 332 330 331 325 322 319 321 319 318 321 318 315 313 318
52 49 50 35 26 18 12 2 354 358 344 339 350 349 355 345 353 355 357 353 348 4 354 344 338 336 333 330 328 327 324 324 324 322 321 320 321 322 320 320 319 322 324
46 38 25 22 11 7 356 347 315 295 291 288 306 327 320 334 346 352 359 14 333 338 336 332 326 322 322 321 320 320 319 316 315 315 316 321 322 323 319 320 322 323 322
26 26 26 19 347 341 329 300 296 283 285 325 338 335 327 341 347 343 346 338 331 321 320 316 313 310 313 316 318 321 319 317 317 315 315 315 319 318 319 320 321 319 318
347 320 305 301 296 285 274 329 335 346 341 331 317 315 333 348 317 313 318 320 319 319 318 316 315 316 317 319 321 318 311 307 304 306 310 314 318 318 321 317 316 316 317
202 207 199 49 328 0 346 335 334 328 327 323 320 318 333 331 321 319 319 316 309 303 303 305 307 309 310 312 310 305 304 302 304 308 311 317 318 321 319 318 322 324 320
44 26 15 356 353 323 334 329 332 331 322 315 311 313 322 321 319 316 315 316 312 310 311 312 308 307 310 307 301 296 296 296 298 301 309 316 319 322 320 322 322 321 324
40 30 358 327 339 333 319 321 320 310 306 306 311 313 315 314 312 310 310 312 308 304 306 308 307 305 307 305 301 297 292 293 295 296 310 308 316 319 321 328 321 321 316
17 355 355 332 320 312 320 321 314 305 304 305 307 307 313 316 317 314 314 318 317 313 309 313 309 306 306 305 300 299 299 304 302 309 306 315 317 320 322 316 318 328 319
343 338 304 299 301 301 294 292 291 300 304 303 303 309 310 315 315 316 318 319 319 315 309 305 305 305 306 304 301 308 312 313 9 6 354 341 333 332 333 326 323 331 324